When you browse on this site, cookies collect data to enhance your experience and personalize the content and advertising you see.
Visit our Privacy Policy to learn more. By continuing to use the site, you agree to this use of cookies and data.
  • In Österreich
  • Länderverzeichnis
  • Für 7 Tage
  • Wassertemperatur
  • Wetterkarte
  • News
  • Widgets
  • user-avatar
    Anmelden

    Stündliche Wetter San Cristóbal

    Heute, 20 Januar, Montag

    Zeit Temperatur Niederschläge Wind Luftdruck Luftfeuchtigkeit
    00:00 +20°C° 0 mm 1 m/S 671 mmHg 86%
    01:00 +20°C° 0 mm 1 m/S 671 mmHg 83%
    02:00 +20°C° 0 mm 1 m/S 671 mmHg 84%
    03:00 +20°C° 0 mm 1 m/S 671 mmHg 84%
    04:00 +20°C° 0 mm 1 m/S 671 mmHg 84%
    05:00 +21°C° 0 mm 1 m/S 671 mmHg 84%
    06:00 +21°C° 0 mm 1 m/S 672 mmHg 84%
    07:00 +21°C° 0 mm 1 m/S 672 mmHg 82%
    08:00 +23°C° 0.1 mm 1 m/S 673 mmHg 76%
    09:00 +24°C° 0.1 mm 2 m/S 673 mmHg 71%
    10:00 +26°C° 0.1 mm 2 m/S 674 mmHg 65%
    11:00 +26°C° 0.2 mm 2 m/S 673 mmHg 65%
    12:00 +26°C° 0.2 mm 2 m/S 673 mmHg 65%
    13:00 +26°C° 0.2 mm 2 m/S 672 mmHg 65%
    14:00 +26°C° 0.1 mm 1 m/S 671 mmHg 65%
    15:00 +27°C° 0.1 mm 1 m/S 671 mmHg 64%
    16:00 +27°C° 0.1 mm 1 m/S 671 mmHg 64%
    17:00 +25°C° 0.1 mm 1 m/S 670 mmHg 72%
    18:00 +23°C° 0.1 mm 1 m/S 670 mmHg 79%
    19:00 +22°C° 0.1 mm 1 m/S 670 mmHg 87%
    20:00 +22°C° 0 mm 1 m/S 671 mmHg 86%
    21:00 +20°C° 0 mm 0 m/S 671 mmHg 85%
    22:00 +20°C° 0 mm 0 m/S 672 mmHg 83%
    23:00 +21°C° 0 mm 1 m/S 672 mmHg 84%

    Morgen, 21 Januar, Dienstag

    Zeit Temperatur Niederschläge Wind Luftdruck Luftfeuchtigkeit
    00:00 +21°C° 0 mm 1 m/S 671 mmHg 84%
    01:00 +21°C° 0 mm 1 m/S 671 mmHg 85%
    02:00 +21°C° 0 mm 1 m/S 671 mmHg 86%
    03:00 +21°C° 0 mm 1 m/S 671 mmHg 86%
    04:00 +20°C° 0 mm 1 m/S 670 mmHg 87%
    05:00 +21°C° 0 mm 1 m/S 671 mmHg 86%
    06:00 +21°C° 0 mm 1 m/S 671 mmHg 85%
    07:00 +22°C° 0 mm 1 m/S 672 mmHg 84%
    08:00 +23°C° 0 mm 1 m/S 672 mmHg 76%
    09:00 +25°C° 0 mm 1 m/S 673 mmHg 68%
    10:00 +27°C° 0 mm 1 m/S 674 mmHg 60%
    11:00 +28°C° 0.2 mm 2 m/S 673 mmHg 60%
    12:00 +28°C° 0.2 mm 2 m/S 673 mmHg 59%
    13:00 +29°C° 0.2 mm 2 m/S 672 mmHg 58%
    14:00 +28°C° 0.4 mm 1 m/S 671 mmHg 62%
    15:00 +27°C° 0.4 mm 1 m/S 671 mmHg 65%
    16:00 +27°C° 0.4 mm 1 m/S 670 mmHg 68%
    17:00 +25°C° 0.5 mm 1 m/S 670 mmHg 75%
    18:00 +22°C° 0.5 mm 0 m/S 670 mmHg 82%
    19:00 +20°C° 0.5 mm 0 m/S 670 mmHg 88%
    20:00 +20°C° 0.8 mm 0 m/S 671 mmHg 89%
    21:00 +20°C° 0.8 mm 0 m/S 671 mmHg 89%
    22:00 +20°C° 0.8 mm 0 m/S 672 mmHg 90%
    23:00 +22°C° 1.2 mm 1 m/S 672 mmHg 91%

    übermorgen, 22 Januar, Mittwoch

    Zeit Temperatur Niederschläge Wind Luftdruck Luftfeuchtigkeit
    00:00 +21°C° 1.2 mm 1 m/S 671 mmHg 92%
    01:00 +21°C° 1.2 mm 1 m/S 671 mmHg 92%
    02:00 +21°C° 0.4 mm 1 m/S 671 mmHg 92%
    03:00 +21°C° 0.4 mm 1 m/S 670 mmHg 93%
    04:00 +21°C° 0.4 mm 1 m/S 670 mmHg 93%
    05:00 +21°C° 0.2 mm 1 m/S 671 mmHg 92%
    06:00 +21°C° 0.2 mm 1 m/S 671 mmHg 91%
    07:00 +19°C° 0.2 mm 0 m/S 671 mmHg 91%
    08:00 +23°C° 0.6 mm 1 m/S 672 mmHg 85%
    09:00 +25°C° 0.6 mm 1 m/S 673 mmHg 80%
    10:00 +26°C° 0.6 mm 1 m/S 674 mmHg 75%
    11:00 +27°C° 0.7 mm 1 m/S 673 mmHg 73%
    12:00 +27°C° 0.7 mm 1 m/S 673 mmHg 70%
    13:00 +28°C° 0.7 mm 1 m/S 672 mmHg 68%
    14:00 +27°C° 0.8 mm 1 m/S 671 mmHg 72%
    15:00 +27°C° 0.8 mm 1 m/S 671 mmHg 75%
    16:00 +26°C° 0.8 mm 1 m/S 670 mmHg 79%
    17:00 +25°C° 0.7 mm 1 m/S 670 mmHg 83%
    18:00 +23°C° 0.7 mm 1 m/S 670 mmHg 87%
    19:00 +22°C° 0.7 mm 1 m/S 670 mmHg 91%
    20:00 +22°C° 0.3 mm 1 m/S 671 mmHg 91%
    21:00 +22°C° 0.3 mm 1 m/S 671 mmHg 90%
    22:00 +22°C° 0.3 mm 1 m/S 672 mmHg 90%
    23:00 +21°C° 0.4 mm 1 m/S 671 mmHg 91%

    23 Januar, Donnerstag

    Zeit Temperatur Niederschläge Wind Luftdruck Luftfeuchtigkeit
    00:00 +21°C° 0.4 mm 1 m/S 671 mmHg 92%
    01:00 +21°C° 0.4 mm 1 m/S 671 mmHg 92%
    02:00 +21°C° 0.2 mm 1 m/S 670 mmHg 92%
    03:00 +21°C° 0.2 mm 1 m/S 670 mmHg 92%
    04:00 +21°C° 0.2 mm 1 m/S 670 mmHg 92%
    05:00 +21°C° 0.1 mm 1 m/S 670 mmHg 92%
    06:00 +21°C° 0.1 mm 1 m/S 671 mmHg 92%
    07:00 +21°C° 0.1 mm 1 m/S 671 mmHg 92%
    08:00 +23°C° 0.2 mm 1 m/S 672 mmHg 86%
    09:00 +24°C° 0.2 mm 1 m/S 673 mmHg 79%
    10:00 +26°C° 0.2 mm 1 m/S 673 mmHg 73%
    11:00 +26°C° 0.6 mm 1 m/S 673 mmHg 73%
    12:00 +27°C° 0.6 mm 1 m/S 672 mmHg 74%
    13:00 +27°C° 0.6 mm 1 m/S 671 mmHg 74%
    14:00 +26°C° 0.8 mm 1 m/S 671 mmHg 77%
    15:00 +26°C° 0.8 mm 1 m/S 670 mmHg 80%
    16:00 +25°C° 0.8 mm 1 m/S 670 mmHg 83%
    17:00 +24°C° 0.4 mm 1 m/S 670 mmHg 87%
    18:00 +23°C° 0.4 mm 1 m/S 670 mmHg 91%
    19:00 +21°C° 0.4 mm 1 m/S 670 mmHg 95%
    20:00 +21°C° 0.1 mm 1 m/S 671 mmHg 95%
    21:00 +21°C° 0.1 mm 1 m/S 671 mmHg 94%
    22:00 +21°C° 0.1 mm 1 m/S 671 mmHg 94%
    23:00 +21°C° 0.1 mm 1 m/S 671 mmHg 93%

    24 Januar, Freitag

    Zeit Temperatur Niederschläge Wind Luftdruck Luftfeuchtigkeit
    00:00 +21°C° 0.1 mm 1 m/S 671 mmHg 93%
    01:00 +21°C° 0.1 mm 1 m/S 671 mmHg 93%
    02:00 +20°C° 0 mm 1 m/S 671 mmHg 92%
    03:00 +20°C° 0 mm 1 m/S 670 mmHg 92%
    04:00 +20°C° 0 mm 1 m/S 670 mmHg 92%
    05:00 +20°C° 0 mm 1 m/S 671 mmHg 90%
    06:00 +21°C° 0 mm 1 m/S 672 mmHg 89%
    07:00 +21°C° 0 mm 1 m/S 672 mmHg 88%
    08:00 +23°C° 0.1 mm 1 m/S 673 mmHg 82%
    09:00 +25°C° 0.1 mm 1 m/S 674 mmHg 76%
    10:00 +26°C° 0.1 mm 1 m/S 674 mmHg 69%
    11:00 +26°C° 0.5 mm 1 m/S 674 mmHg 70%
    12:00 +27°C° 0.5 mm 1 m/S 673 mmHg 71%
    13:00 +27°C° 0.5 mm 1 m/S 673 mmHg 72%
    14:00 +26°C° 0.5 mm 1 m/S 672 mmHg 75%
    15:00 +26°C° 0.5 mm 1 m/S 671 mmHg 78%
    16:00 +25°C° 0.5 mm 1 m/S 671 mmHg 81%
    17:00 +24°C° 0.2 mm 1 m/S 671 mmHg 85%
    18:00 +23°C° 0.2 mm 1 m/S 671 mmHg 90%
    19:00 +21°C° 0.2 mm 1 m/S 671 mmHg 95%
    20:00 +21°C° 0.1 mm 1 m/S 672 mmHg 94%
    21:00 +21°C° 0.1 mm 1 m/S 672 mmHg 94%
    22:00 +20°C° 0.1 mm 1 m/S 672 mmHg 93%
    23:00 +20°C° 0.1 mm 1 m/S 672 mmHg 93%

    25 Januar, Samstag

    Zeit Temperatur Niederschläge Wind Luftdruck Luftfeuchtigkeit
    00:00 +20°C° 0.1 mm 1 m/S 672 mmHg 93%
    01:00 +20°C° 0.1 mm 1 m/S 672 mmHg 93%
    02:00 +20°C° 0.1 mm 1 m/S 672 mmHg 92%
    03:00 +20°C° 0.1 mm 1 m/S 671 mmHg 92%
    04:00 +20°C° 0.1 mm 1 m/S 671 mmHg 92%
    05:00 +20°C° 0 mm 1 m/S 672 mmHg 91%
    06:00 +20°C° 0 mm 1 m/S 672 mmHg 90%
    07:00 +21°C° 0 mm 1 m/S 673 mmHg 89%
    08:00 +22°C° 0.1 mm 1 m/S 673 mmHg 83%
    09:00 +24°C° 0.1 mm 1 m/S 674 mmHg 77%
    10:00 +25°C° 0.1 mm 1 m/S 674 mmHg 72%
    11:00 +25°C° 0.1 mm 1 m/S 674 mmHg 70%
    12:00 +26°C° 0.1 mm 1 m/S 673 mmHg 69%
    13:00 +26°C° 0.1 mm 1 m/S 673 mmHg 67%
    14:00 +26°C° 0.2 mm 1 m/S 672 mmHg 71%
    15:00 +25°C° 0.2 mm 1 m/S 672 mmHg 74%
    16:00 +25°C° 0.2 mm 1 m/S 671 mmHg 78%
    17:00 +24°C° 0.1 mm 1 m/S 671 mmHg 83%
    18:00 +22°C° 0.1 mm 1 m/S 671 mmHg 88%
    19:00 +19°C° 0.1 mm 0 m/S 672 mmHg 93%
    20:00 +21°C° 0.1 mm 1 m/S 672 mmHg 92%
    21:00 +21°C° 0.1 mm 1 m/S 672 mmHg 92%
    22:00 +20°C° 0.1 mm 1 m/S 673 mmHg 92%
    23:00 +20°C° 0.2 mm 1 m/S 672 mmHg 92%
    Mehr zeigen